Location: Tucson
(32.2217°N, 110.9265°W)
Time: 02:28:51
(UTC-07:00)

Tiros 1 - Pass Details

Date: 31 October 2021
Orbit: 630 x 663 km, 48.4° (Epoch: 07 December)

Event Time Altitude Azimuth Distance (km) Brightness Sun altitude
Rises 06:18:44 0° 217° (SW) 2,975 10.3 -5.2°
Reaches altitude 10° 06:21:06 10° 213° (SSW) 2,067 9.6 -4.7°
Maximum altitude 06:25:46 55° 136° (SE) 797 8.1 -3.8°
Drops below altitude 10° 06:30:26 10° 59° (ENE) 2,074 10.5 -2.8°
Sets 06:32:49 0° 55° (NE) 2,986 11.2 -2.3°
